Terminal Aerodrome Forecast
Issued by NWS Jackson, KY

Home | Current Version | Previous Version | Text Only | Print | Product List | Glossary On
Versions: 1 2 3 4 5 6 7 8 9 10 11 12 13 14 15 16 17 18 19
000
FTUS43 KJKL 071400 AAA
TAFLOZ
TAF AMD
KLOZ 071455Z 0715/0812 23010G20KT P6SM FEW050 SCT250
     FM080000 22004KT P6SM SCT050 BKN250
     FM080900 21004KT P6SM VCTS SCT050CB BKN250=

USA.gov is the U.S. government's official web portal to all federal, state and local government web resources and services.